Weather History for Brady, TX

Change the Weather History Date:

Thursday, December 6, 2012

  Actual Average (KJCT) Record (KJCT)
Temperature  
Mean Temperature 62 °F -  
Max Temperature 80 °F 60 °F 79 °F (2012)
Min Temperature 44 °F 34 °F 18 °F (1999)
Degree Days  
Heating Degree Days 3    
Growing Degree Days 12 (Base 50)    
Moisture  
Dew Point 41 °F    
Average Humidity 42    
Maximum Humidity 72    
Minimum Humidity 23    
Precipitation  
Precipitation 0.00 in - - ()
Sea Level Pressure  
Sea Level Pressure 29.86 in    
Wind  
Wind Speed 9 mph (South)    
Max Wind Speed 17 mph    
Max Gust Speed -    
Visibility 10 miles    
Events      
Averages and records for this station are not official NWS values.
T = Trace of Precipitation, MM = Missing Value Source: NWS Daily Summary

Daily Weather History Graph

Daily Weather History Graph

Search for Another Location

Airport:

Trip Planner

Search our weather history database for the weather conditions in past years. The results will help you decide how hot, cold, wet, or windy it might be!

Date:

Astronomy

Dec. 06, 2012 Rise Set
Actual Time 7:22 AM CST 5:34 PM CST
Civil Twilight 6:55 AM CST 6:01 PM CST
Nautical Twilight 6:25 AM CST 6:31 PM CST
Astronomical Twilight 5:56 AM CST 7:00 PM CST
Moon 12:06 AM CST (12/6) 12:38 PM CST (12/6)
Length of Visible Light 11h 05m
Length of Day
10h 12m
Waning Gibbous, 49% of the Moon is Illuminated
Dec 6
Waning Gibbous
Dec 13
New
Dec 19
First Quarter
Dec 28
Full
Jan 4
Last Quarter

Hourly Weather History & Observations

Time (CST) Temp. Windchill Dew Point Humidity Pressure Visibility Wind Dir Wind Speed Gust Speed Precip Events Conditions
7:35 AM 44.6 °F 42.2 °F 33.8 °F 66% 29.96 in 6.0 mi South 4.6 mph - N/A   Haze
7:55 AM 46.4 °F 44.3 °F 35.6 °F 66% 29.95 in 10.0 mi South 4.6 mph - N/A   Clear
8:15 AM 48.2 °F - 35.6 °F 62% 29.95 in 6.0 mi South 4.6 mph - N/A   Haze
8:35 AM 51.8 °F - 37.4 °F 58% 29.95 in 10.0 mi South 6.9 mph - N/A   Clear
8:55 AM 55.4 °F - 39.2 °F 54% 29.95 in 10.0 mi South 9.2 mph - N/A   Clear
9:15 AM 57.2 °F - 39.2 °F 51% 29.95 in 10.0 mi South 9.2 mph - N/A   Clear
9:35 AM 60.8 °F - 37.4 °F 42% 29.94 in 10.0 mi South 12.7 mph - N/A   Clear
9:55 AM 62.6 °F - 37.4 °F 39% 29.94 in 10.0 mi South 15.0 mph - N/A   Clear
10:15 AM 64.4 °F - 37.4 °F 37% 29.95 in 10.0 mi South 13.8 mph - N/A   Clear
10:35 AM 66.2 °F - 37.4 °F 35% 29.94 in 10.0 mi South 12.7 mph - N/A   Clear
10:55 AM 68.0 °F - 37.4 °F 33% 29.93 in 10.0 mi South 13.8 mph - N/A   Clear
11:15 AM 69.8 °F - 37.4 °F 31% 29.92 in 10.0 mi South 13.8 mph - N/A   Clear
11:35 AM 69.8 °F - 39.2 °F 33% 29.91 in 10.0 mi South 13.8 mph - N/A   Clear
11:55 AM 71.6 °F - 39.2 °F 31% 29.89 in 10.0 mi South 16.1 mph - N/A   Clear
12:15 PM 71.6 °F - 39.2 °F 31% 29.87 in 10.0 mi South 16.1 mph - N/A   Clear
12:35 PM 73.4 °F - 39.2 °F 29% 29.86 in 10.0 mi South 17.3 mph - N/A   Clear
12:55 PM 75.2 °F - 39.2 °F 27% 29.85 in 10.0 mi South 15.0 mph - N/A   Clear
1:15 PM 77.0 °F - 39.2 °F 26% 29.85 in 10.0 mi SW 13.8 mph - N/A   Clear
1:35 PM 78.8 °F - 39.2 °F 24% 29.84 in 10.0 mi SW 13.8 mph - N/A   Clear
1:55 PM 78.8 °F - 39.2 °F 24% 29.83 in 10.0 mi SSW 12.7 mph - N/A   Clear
2:15 PM 78.8 °F - 39.2 °F 24% 29.81 in 7.0 mi SSW 12.7 mph - N/A   Clear
3:15 PM 80.6 °F - 39.2 °F 23% 29.80 in 10.0 mi SSW 12.7 mph - N/A   Clear
3:35 PM 78.8 °F - 39.2 °F 24% 29.80 in 10.0 mi South 13.8 mph - N/A   Clear
3:55 PM 78.8 °F - 39.2 °F 24% 29.80 in 10.0 mi SSW 10.4 mph - N/A   Clear
4:15 PM 78.8 °F - 39.2 °F 24% 29.80 in 10.0 mi South 9.2 mph - N/A   Clear
4:35 PM 78.8 °F - 39.2 °F 24% 29.80 in 10.0 mi South 8.1 mph - N/A   Clear
4:55 PM 77.0 °F - 39.2 °F 26% 29.80 in 10.0 mi South 8.1 mph - N/A   Clear
5:15 PM 75.2 °F - 39.2 °F 27% 29.80 in 10.0 mi South 6.9 mph - N/A   Clear
5:35 PM 71.6 °F - 39.2 °F 31% 29.81 in 10.0 mi South 4.6 mph - N/A   Clear
5:55 PM 71.6 °F - 39.2 °F 31% 29.81 in 10.0 mi SSE 3.5 mph - N/A   Clear
6:15 PM 69.8 °F - 41.0 °F 35% 29.82 in 10.0 mi SSE 3.5 mph - N/A   Clear
6:35 PM 68.0 °F - 41.0 °F 37% 29.82 in 10.0 mi South 3.5 mph - N/A   Clear
6:55 PM 68.0 °F - 41.0 °F 37% 29.83 in 10.0 mi South 3.5 mph - N/A   Clear
7:15 PM 66.2 °F - 41.0 °F 40% 29.83 in 10.0 mi SSE 3.5 mph - N/A   Clear
7:35 PM 64.4 °F - 41.0 °F 42% 29.83 in 10.0 mi SSE 5.8 mph - N/A   Clear
7:55 PM 64.4 °F - 41.0 °F 42% 29.84 in 10.0 mi SE 5.8 mph - N/A   Clear
8:35 PM 62.6 °F - 44.6 °F 52% 29.84 in 10.0 mi South 9.2 mph - N/A   Clear
8:55 PM 62.6 °F - 44.6 °F 52% 29.85 in 10.0 mi South 8.1 mph - N/A   Clear
9:15 PM 62.6 °F - 46.4 °F 55% 29.85 in 10.0 mi South 8.1 mph - N/A   Clear
9:35 PM 60.8 °F - 46.4 °F 59% 29.86 in 10.0 mi South 8.1 mph - N/A   Clear
9:55 PM 59.0 °F - 46.4 °F 63% 29.86 in 10.0 mi SSE 5.8 mph - N/A   Clear
10:15 PM 57.2 °F - 46.4 °F 67% 29.86 in 10.0 mi South 6.9 mph - N/A   Clear
10:35 PM 57.2 °F - 46.4 °F 67% 29.86 in 10.0 mi South 6.9 mph - N/A   Clear
10:55 PM 57.2 °F - 46.4 °F 67% 29.86 in 10.0 mi South 8.1 mph - N/A   Clear
11:15 PM 57.2 °F - 48.2 °F 72% 29.86 in 10.0 mi South 6.9 mph - N/A   Clear
11:35 PM 55.4 °F - 46.4 °F 72% 29.86 in 10.0 mi South 6.9 mph - N/A   Clear
11:55 PM 57.2 °F - 48.2 °F 72% 29.86 in 10.0 mi SSE 4.6 mph - N/A   Clear